Location: Ceske Budejovice
(48.9830°N, 14.4670°E)
Time: 12:06:29
(UTC+01:00)

ISS - Pass Details

Date: 27 November 2019
Orbit: 411 x 421 km, 51.6° (Epoch: 15 December)

Event Time Altitude Azimuth Distance (km) Brightness Sun altitude
Rises 19:12:52 0° 272° (W) 2,360 1.3 -29.3°
Reaches altitude 10° 19:14:59 10° 278° (W) 1,499 0.0 -29.7°
Enters shadow 19:15:44 16° 281° (W) 1,208 -0.7 -29.8°
